Weather in Tanda

Russia / Sakha (Yakutia) Republic     62°38′47″N   131°59′38″E
temp.,
°C
wind,
m/s
gust,
m/s
humid.,
%
clouds,
%
prec.,
mm/h
press.,
hPa
HPBL,
m
8 may, sat
sat800:00+1nnw119460 0.0 101412
03:000nw22926 0.0 101416
06:00+3nw257890 0.0 1015162
09:00+8nw3457100 0.0 1015679
12:00+11nw334766 0.0 10141366
15:00+11nw334677 0.0 10141753
18:00+9nw345995 0.0 1014767
21:00+5nw2584100 0.0 1015114
9 may, sun
sun900:00+3wnw2291100 0.0 101647
03:00+1wnw2294100 0.0 101643
06:00+3wnw2384100 0.0 1016154
09:00+7wnw2264100 0.0 1015604
12:00+10wnw2352100 0.0 10141229
15:00+11wnw2347100 0.0 10141517
18:00+10wnw3353100 0.0 1013926
21:00+4wnw2674100 0.0 1014136
10 may, mon
mon1000:00+3w247897 0.0 1014104
03:000wsw248873 0.0 101585
06:00+2wsw377672 0.0 1014266
09:00+8w35565 0.0 1014928
12:00+11wnw454658 0.0 10131682
15:00+12wnw454196 0.0 10132104
18:00+10wnw354780 0.0 10141693
21:00+4nw2668100 0.0 1015149
11 may, tue
tue1100:00+2wnw268463 0.0 1016145
03:000w259512 0.0 1016112
06:00+2w248044 0.0 1016297
09:00+6wsw225871 0.0 10161057
12:00+7wsw3256100 0.0 10151143
15:00+7w225587 0.1 10151310
18:00+7w336097 0.0 1015833
21:00+4wnw257699 0.0 1015199
12 may, wed
wed1200:00+3nw2486100 0.0 1015134
03:00+3nnw1293100 0.1 1015118
06:00+3nne227075 0.1 1015261
09:00+7ne124581 0.1 1015989
12:00+10nne213898 0.0 10141800
15:00+10nnw2239100 0.0 10141839
18:00+9n334463 0.1 10141531
21:00+4nw226136 0.2 101411